Location: Luxembourg
(49.6117°N, 6.1300°E)
Time: 14:20:58
(UTC+02:00)

Amateur Radio Satellites - All Passes

Search period start: 21 September 2017 13:50
Search period end: 22 September 2017 13:50
Location: Luxembourg, 49.6117°N, 6.1300°E

Satellite Date Start Highest point End Downlink Frequencies (MHz)
Time Altitude Azimuth
QB50P2 21 Sep 13:53:49 13:56:11 15° 271° (W) 13:58:34 145.880/145.840
DX 1 21 Sep 13:55:38 13:57:21 12° 88° (E) 13:59:04 434.975-435.025
50 SAT 21 Sep 14:03:14 14:05:08 14° 92° (E) 14:07:00 437.505
VELOX 1 21 Sep 14:11:45 14:16:05 57° 101° (ESE) 14:20:24 145.980
BUGSAT 1 21 Sep 14:11:57 14:15:40 36° 263° (W) 14:19:28 437.445
RS-15 21 Sep 14:17:53 14:30:01 63° 38° (NE) 14:41:31 29.354- 29.394
Oscar 19 21 Sep 14:22:41 14:27:52 69° 257° (WSW) 14:33:05 437.125/150
M-CUBED/EXP-1 PRIME 21 Sep 14:24:33 14:26:25 13° 264° (W) 14:28:13 437.505
SPROUT 21 Sep 14:33:11 14:37:26 64° 288° (WNW) 14:41:41 437.525
O/OREOS (USA 219) 21 Sep 14:35:58 14:39:31 22° 257° (WSW) 14:43:04 437.305
SO-50 21 Sep 14:51:04 14:53:33 15° 111° (ESE) 14:56:02 436.795
ESTCUBE 1 21 Sep 15:08:41 15:10:35 13° 305° (NW) 15:12:28 437.505/2401.250
NO-84 21 Sep 15:09:25 15:12:47 33° 140° (SE) 15:15:54 435.350 FM
YUBILEINY 21 Sep 15:10:58 15:19:05 42° 293° (WNW) 15:27:15 435.215
AO-7 21 Sep 15:14:24 15:22:31 60° 61° (ENE) 15:30:39 .
ITAMSAT 1 21 Sep 15:21:48 15:26:30 37° 64° (ENE) 15:31:14 435.822/435.867
Gurwin Techsat 1B 21 Sep 15:25:05 15:29:48 32° 265° (W) 15:34:33 435.225
UKube-1 21 Sep 15:28:48 15:33:06 65° 102° (ESE) 15:37:22 .
DX 1 21 Sep 15:29:47 15:34:08 84° 286° (WNW) 15:38:29 434.975-435.025
50 SAT 21 Sep 15:34:42 15:37:51 41° 289° (WNW) 15:40:58 437.505
VELOX 1 21 Sep 15:49:00 15:52:10 20° 300° (WNW) 15:55:18 145.980
Oscar 19 21 Sep 16:07:11 16:08:10 10° 276° (W) 16:09:08 437.125/150
MOZHAYETS 4 21 Sep 16:10:40 16:14:34 26° 93° (E) 16:18:26
ITUPSAT 1 21 Sep 16:13:19 16:17:23 27° 94° (E) 16:21:27 437.325
PCSat 21 Sep 16:25:41 16:30:58 57° 119° (ESE) 16:36:18 145.827
SO-50 21 Sep 16:28:52 16:33:21 88° 304° (WNW) 16:37:54 436.795
RS-15 21 Sep 16:30:58 16:42:27 55° 246° (WSW) 16:53:20 29.354- 29.394
DOVE 4 21 Sep 16:42:38 16:45:42 19° 62° (ENE) 16:48:40 437.250
NO-84 21 Sep 16:46:35 16:50:06 55° 338° (NNW) 16:53:19 435.350 FM
BEESAT 21 Sep 16:51:31 16:56:17 58° 102° (ESE) 17:01:00 436.000
CUTE-I 21 Sep 16:53:37 16:55:25 12° 49° (NE) 16:57:12 437.470
ITAMSAT 1 21 Sep 17:01:14 17:05:59 36° 263° (W) 17:10:46 435.822/435.867
UKube-1 21 Sep 17:05:50 17:08:41 17° 301° (WNW) 17:11:31 .
DX 1 21 Sep 17:07:48 17:09:38 13° 305° (NW) 17:11:28 434.975-435.025
AO-7 21 Sep 17:07:59 17:15:39 39° 263° (W) 17:23:21 .
YUBILEINY 21 Sep 17:16:35 17:19:01 11° 321° (NW) 17:21:27 435.215
XW-2C 21 Sep 17:21:07 17:22:47 13° 59° (ENE) 17:24:28 145.795 - 145.815
LilacSat-2 21 Sep 17:29:15 17:31:39 16° 61° (ENE) 17:34:03 437.200
HO-68 21 Sep 17:33:53 17:38:24 18° 45° (NE) 17:42:56 435.675
NUDT-PHONESAT 21 Sep 17:34:45 17:36:21 12° 59° (ENE) 17:37:57 437.300
MOZHAYETS 4 21 Sep 17:47:29 17:51:54 43° 292° (WNW) 17:56:16
ITUPSAT 1 21 Sep 17:50:48 17:55:24 45° 293° (WNW) 17:59:58 437.325
KAITUO 1B 21 Sep 17:57:19 18:00:13 21° 64° (ENE) 18:03:08 145.475/437.950
CUBESAT XI-V 21 Sep 18:06:16 18:10:56 75° 102° (ESE) 18:15:33 437.345
PCSat 21 Sep 18:09:45 18:14:40 34° 320° (NW) 18:19:37 145.827
SO-50 21 Sep 18:10:54 18:14:26 22° 331° (NNW) 18:18:01 436.795
DOVE 4 21 Sep 18:18:42 18:23:05 56° 259° (W) 18:27:17 437.250
XW-2D 21 Sep 18:19:16 18:22:57 46° 71° (ENE) 18:26:41 145.860 - 145.880
NO-84 21 Sep 18:24:53 18:27:53 30° 358° (N) 18:30:41 435.350 FM
KKS-1 21 Sep 18:26:55 18:31:11 44° 99° (E) 18:35:26 437.445
CUTE-I 21 Sep 18:29:12 18:34:23 57° 69° (ENE) 18:39:37 437.470
CUTE 1.7 + AOD 2 21 Sep 18:29:22 18:32:03 16° 60° (ENE) 18:34:44 437.475
BEESAT 21 Sep 18:30:00 18:33:41 22° 300° (WNW) 18:37:21 436.000
XW-2B 21 Sep 18:31:25 18:35:12 60° 73° (ENE) 18:39:02 145.730 - 145.750
CUBEBUG 2 21 Sep 18:32:31 18:33:40 11° 54° (NE) 18:34:50 437.445
XW-2F 21 Sep 18:33:37 18:37:24 61° 74° (ENE) 18:41:13 145.980 - 146.000
RS-15 21 Sep 18:47:23 18:51:43 13° 270° (W) 18:55:59 29.354- 29.394
XW-2C 21 Sep 18:52:34 18:56:25 78° 258° (WSW) 19:00:17 145.795 - 145.815
STARS 21 Sep 18:58:56 19:03:05 40° 98° (E) 19:07:14 437.465
LilacSat-2 21 Sep 19:01:41 19:05:30 58° 259° (W) 19:09:22 437.200
NUDT-PHONESAT 21 Sep 19:05:55 19:09:41 75° 259° (WSW) 19:13:27 437.300
HO-68 21 Sep 19:17:50 19:24:53 66° 67° (ENE) 19:31:59 435.675
KAITUO 1B 21 Sep 19:30:26 19:34:00 38° 262° (W) 19:37:36 145.475/437.950
AO-73 21 Sep 19:36:05 19:38:29 15° 57° (ENE) 19:40:55 145.935
ZACube-1 21 Sep 19:36:56 19:39:38 16° 58° (ENE) 19:42:23 437.345
Oscar 11 21 Sep 19:39:18 19:40:50 12° 55° (NE) 19:42:21 .
SEEDS 21 Sep 19:40:25 19:44:29 47° 70° (ENE) 19:48:34 437.485
CUBESAT XI-V 21 Sep 19:44:46 19:47:46 17° 302° (WNW) 19:50:43 437.345
SO-50 21 Sep 19:54:37 19:56:33 12° 356° (N) 19:58:28 436.795
XW-2D 21 Sep 19:54:47 19:57:23 17° 269° (W) 20:00:01 145.860 - 145.880
PCSat 21 Sep 19:56:51 19:59:46 14° 345° (NNW) 20:02:41 145.827
XW-2A 21 Sep 20:01:31 20:04:51 52° 72° (ENE) 20:08:12 145.665 - 145.685
NO-84 21 Sep 20:02:39 20:05:44 47° 20° (NNE) 20:08:36 435.350 FM
CUTE 1.7 + AOD 2 21 Sep 20:03:08 20:07:24 68° 258° (WSW) 20:11:42 437.475
KKS-1 21 Sep 20:03:56 20:07:32 25° 298° (WNW) 20:11:07 437.445
CUBEBUG 2 21 Sep 20:05:13 20:09:27 73° 73° (ENE) 20:13:50 437.445
XW-2B 21 Sep 20:07:47 20:09:46 14° 271° (W) 20:11:47 145.730 - 145.750
XW-2F 21 Sep 20:09:59 20:11:55 13° 271° (W) 20:13:51 145.980 - 146.000
STRAND 1 21 Sep 20:09:59 20:14:00 22° 91° (E) 20:17:59 437.568
CUTE-I 21 Sep 20:10:34 20:14:49 24° 268° (W) 20:19:05 437.470
AAUSAT CUBESAT 2 21 Sep 20:11:10 20:15:09 45° 70° (ENE) 20:19:08 437.432
UWE-3 21 Sep 20:17:37 20:21:50 59° 72° (ENE) 20:26:13 435.000/436.395/437.385
STARS 21 Sep 20:35:36 20:39:16 26° 297° (WNW) 20:42:55 437.465
HO-68 21 Sep 21:07:00 21:13:08 30° 267° (W) 21:19:19 435.675
AO-73 21 Sep 21:09:44 21:14:04 83° 256° (WSW) 21:18:33 145.935
ZACube-1 21 Sep 21:11:02 21:15:21 73° 258° (WSW) 21:19:50 437.345
Oscar 11 21 Sep 21:11:52 21:16:12 78° 75° (ENE) 21:20:36 .
SEEDS 21 Sep 21:17:12 21:20:24 20° 269° (W) 21:23:37 437.485
BEESAT 3 21 Sep 21:25:28 21:29:18 45° 122° (ESE) 21:33:11 437.485
BEESAT 2 21 Sep 21:28:06 21:30:51 18° 113° (ESE) 21:33:36 435.950
SO-50 21 Sep 21:35:48 21:38:49 17° 21° (NNE) 21:41:49 436.795
XW-2A 21 Sep 21:36:21 21:37:53 12° 271° (W) 21:39:25 145.665 - 145.685
EO-88 21 Sep 21:38:11 21:40:58 21° 64° (ENE) 21:43:45 145.990 - 145.960
NO-84 21 Sep 21:40:16 21:42:59 31° 221° (SW) 21:45:35 435.350 FM
PCSat 21 Sep 21:42:57 21:45:35 13° 12° (NNE) 21:48:13 145.827
CUBEBUG 2 21 Sep 21:44:31 21:46:39 14° 273° (W) 21:48:50 437.445
AAUSAT CUBESAT 2 21 Sep 21:47:42 21:50:49 20° 268° (W) 21:53:57 437.432
STRAND 1 21 Sep 21:48:30 21:53:33 59° 290° (WNW) 21:58:36 437.568
AO-85 21 Sep 21:55:38 21:59:07 32° 119° (ESE) 22:02:40 145.980
UWE-3 21 Sep 21:55:54 21:58:44 17° 271° (W) 22:01:37 435.000/436.395/437.385
FO-29 21 Sep 22:00:07 22:04:45 28° 95° (E) 22:09:41 435.910
DELFI C3 21 Sep 22:03:09 22:07:06 65° 72° (ENE) 22:11:00 145.870
Max Valier Satellite 21 Sep 22:04:24 22:07:59 49° 71° (ENE) 22:11:37 145.860
Tancredo 1 21 Sep 22:14:49 22:17:26 45° 153° (SSE) 22:20:03 437.200
nSIGHT-1 21 Sep 22:20:25 22:22:28 16° 139° (SE) 22:24:32 .
UNISAT 6 21 Sep 22:21:06 22:23:54 16° 88° (E) 22:26:42 437.425
LO-87 21 Sep 22:43:12 22:45:27 16° 63° (ENE) 22:47:43 145.935 - 145.965
TIGRISAT 21 Sep 22:44:49 22:48:35 24° 92° (E) 22:52:21 435.000
AO-73 21 Sep 22:50:30 22:51:04 10° 276° (W) 22:51:39 145.935
Oscar 11 21 Sep 22:50:48 22:52:54 13° 273° (W) 22:55:00 .
ESTCUBE 1 21 Sep 22:57:56 23:01:26 22° 61° (ENE) 23:04:56 437.505/2401.250
BEESAT 3 21 Sep 23:03:26 23:07:01 30° 322° (NW) 23:10:37 437.485
BEESAT 2 21 Sep 23:04:08 23:08:09 64° 313° (NW) 23:12:13 435.950
EO-88 21 Sep 23:10:59 23:14:25 36° 263° (W) 23:17:52 145.990 - 145.960
ISS 21 Sep 23:11:18 23:14:18 34° 147° (SSE) 23:17:19 437.550
SO-50 21 Sep 23:15:49 23:20:17 51° 44° (NE) 23:24:47 436.795
YUBILEINY 21 Sep 23:18:01 23:25:51 35° 64° (ENE) 23:33:39 435.215
PCSat 21 Sep 23:26:07 23:30:50 29° 37° (NE) 23:35:32 145.827
STRAND 1 21 Sep 23:30:04 23:31:43 11° 310° (NW) 23:33:22 437.568
AO-85 21 Sep 23:35:51 23:39:28 35° 320° (NW) 23:43:12 145.980
VELOX 1 21 Sep 23:39:21 23:41:24 13° 56° (NE) 23:43:26 145.980
Max Valier Satellite 21 Sep 23:39:52 23:42:07 15° 270° (W) 23:44:23 145.860
DELFI C3 21 Sep 23:40:21 23:42:16 13° 271° (W) 23:44:12 145.870
FO-29 21 Sep 23:44:59 23:50:05 49° 292° (WNW) 23:55:37 435.910
Tancredo 1 21 Sep 23:49:17 23:51:58 57° 352° (N) 23:54:39 437.200
nSIGHT-1 21 Sep 23:55:07 23:58:21 69° 157° (SSE) 00:01:36 .
SPROUT 21 Sep 23:55:43 23:58:54 21° 62° (ENE) 00:02:07 437.525
UNISAT 6 21 Sep 23:56:28 00:01:07 74° 286° (WNW) 00:05:47 437.425
PRISM 22 Sep 00:03:27 00:07:32 75° 104° (ESE) 00:11:35 437.425
AIST 2D 22 Sep 00:04:26 00:06:54 18° 92° (E) 00:09:21 435.315
LO-87 22 Sep 00:15:10 00:18:33 45° 261° (W) 00:21:59 145.935 - 145.965
TIGRISAT 22 Sep 00:21:01 00:25:29 48° 290° (WNW) 00:29:59 435.000
ESTCUBE 1 22 Sep 00:33:29 00:37:55 52° 260° (W) 00:42:23 437.505/2401.250
NANOSAT C BR1 22 Sep 00:35:07 00:37:47 16° 90° (E) 00:40:26 145.865
50 SAT 22 Sep 00:38:06 00:39:17 12° 60° (ENE) 00:40:28 437.505
BEESAT 2 22 Sep 00:44:00 00:46:39 17° 334° (NNW) 00:49:20 435.950
BEESAT 3 22 Sep 00:44:29 00:45:50 11° 345° (NNW) 00:47:10 437.485
ISS 22 Sep 00:47:21 00:50:38 73° 347° (NNW) 00:53:56 437.550
UKube-1 22 Sep 00:53:44 00:55:55 14° 56° (ENE) 00:58:08 .
DX 1 22 Sep 00:54:32 00:57:41 20° 60° (ENE) 01:00:50 434.975-435.025
SO-50 22 Sep 00:56:37 01:00:33 28° 243° (WSW) 01:04:30 436.795
DUCHIFAT 1 22 Sep 01:04:14 01:07:52 27° 94° (E) 01:11:29 145.980
PCSat 22 Sep 01:09:19 01:14:44 71° 238° (WSW) 01:20:07 145.827
VELOX 1 22 Sep 01:12:46 01:17:10 86° 72° (ENE) 01:21:36 145.980
POLYITAN 1 22 Sep 01:14:03 01:18:09 41° 98° (E) 01:22:13 437.675
YUBILEINY 22 Sep 01:14:42 01:23:18 66° 267° (W) 01:31:55 435.215
EO-79 22 Sep 01:19:01 01:23:10 46° 99° (E) 01:27:17 145.935-145.965
AO-85 22 Sep 01:19:19 01:21:02 12° 344° (NNW) 01:22:48 145.980
Tancredo 1 22 Sep 01:23:59 01:26:42 66° 12° (NNE) 01:29:24 437.200
SPROUT 22 Sep 01:30:24 01:34:30 49° 261° (W) 01:38:39 437.525
nSIGHT-1 22 Sep 01:31:33 01:34:46 58° 357° (N) 01:38:00 .
QB50P2 22 Sep 01:31:42 01:35:59 69° 102° (ESE) 01:40:15 145.880/145.840
UNISAT 6 22 Sep 01:35:10 01:37:02 12° 305° (NW) 01:38:54 437.425
AIST 2D 22 Sep 01:36:57 01:40:15 37° 290° (WNW) 01:43:31 435.315
PRISM 22 Sep 01:40:07 01:42:17 14° 302° (WNW) 01:44:26 437.425
BUGSAT 1 22 Sep 01:49:05 01:52:27 23° 93° (E) 01:55:49 437.445
M-CUBED/EXP-1 PRIME 22 Sep 01:56:33 01:59:16 22° 100° (E) 02:01:54 437.505
Gurwin Techsat 1B 22 Sep 01:58:33 02:00:18 11° 84° (E) 02:02:03 435.225
50 SAT 22 Sep 02:08:03 02:11:20 61° 259° (W) 02:14:38 437.505
NANOSAT C BR1 22 Sep 02:09:40 02:13:53 61° 288° (WNW) 02:18:06 145.865
ISS 22 Sep 02:24:02 02:27:19 62° 7° (N) 02:30:36 437.550
BEESAT 22 Sep 02:26:21 02:29:30 18° 57° (ENE) 02:32:41 436.000
UKube-1 22 Sep 02:27:01 02:31:20 86° 252° (WSW) 02:35:41 .
DX 1 22 Sep 02:29:15 02:33:31 55° 259° (W) 02:37:48 434.975-435.025
Oscar 19 22 Sep 02:30:03 02:34:37 30° 94° (E) 02:39:06 437.125/150
DUCHIFAT 1 22 Sep 02:39:42 02:43:36 36° 293° (WNW) 02:47:29 145.980
POLYITAN 1 22 Sep 02:50:14 02:53:44 25° 296° (WNW) 02:57:13 437.675
VELOX 1 22 Sep 02:52:33 02:54:14 12° 273° (W) 02:55:56 145.980
PCSat 22 Sep 02:54:59 02:57:09 12° 258° (WSW) 02:59:19 145.827
EO-79 22 Sep 02:55:20 02:58:39 22° 298° (WNW) 03:01:57 145.935-145.965
Tancredo 1 22 Sep 02:58:39 03:01:08 32° 211° (SSW) 03:03:35 437.200
AO-85 22 Sep 03:02:13 03:03:18 11° 10° (N) 03:04:23 145.980
nSIGHT-1 22 Sep 03:08:00 03:11:16 85° 16° (NNE) 03:14:32 .
QB50P2 22 Sep 03:08:36 03:11:17 16° 301° (WNW) 03:13:58 145.880/145.840
O/OREOS (USA 219) 22 Sep 03:13:18 03:16:57 25° 104° (ESE) 03:20:38 437.305
YUBILEINY 22 Sep 03:13:51 03:18:19 15° 290° (WNW) 03:22:48 435.215
AO-7 22 Sep 03:14:05 03:16:53 12° 81° (E) 03:19:42 .
MOZHAYETS 4 22 Sep 03:16:20 03:20:38 40° 68° (ENE) 03:25:00
ITUPSAT 1 22 Sep 03:23:54 03:28:30 50° 68° (ENE) 03:33:09 437.325
BUGSAT 1 22 Sep 03:24:00 03:27:57 41° 291° (WNW) 03:31:55 437.445
M-CUBED/EXP-1 PRIME 22 Sep 03:30:48 03:33:46 28° 300° (WNW) 03:36:37 437.505
Gurwin Techsat 1B 22 Sep 03:35:51 03:41:11 73° 103° (ESE) 03:46:30 435.225
CUBESAT XI-V 22 Sep 03:38:01 03:41:14 18° 59° (ENE) 03:44:26 437.345
KKS-1 22 Sep 03:56:10 03:57:26 11° 53° (NE) 03:58:42 437.445
ISS 22 Sep 04:00:35 04:03:49 54° 206° (SSW) 04:07:03 437.550
BEESAT 3 22 Sep 04:00:59 04:04:11 22° 32° (NNE) 04:07:21 437.485
BEESAT 22 Sep 04:01:58 04:06:43 76° 256° (WSW) 04:11:31 436.000
BEESAT 2 22 Sep 04:03:16 04:05:31 14° 22° (NNE) 04:07:46 435.950
UKube-1 22 Sep 04:07:17 04:08:02 10° 273° (W) 04:08:47 .
Oscar 19 22 Sep 04:09:11 04:14:05 44° 294° (WNW) 04:18:57 437.125/150
AO-85 22 Sep 04:41:40 04:45:09 24° 33° (NNE) 04:48:50 145.980
nSIGHT-1 22 Sep 04:44:36 04:47:22 26° 216° (SW) 04:50:07 .
RS-15 22 Sep 04:51:08 04:58:57 20° 96° (E) 05:06:46 29.354- 29.394
O/OREOS (USA 219) 22 Sep 04:51:46 04:56:06 46° 304° (WNW) 05:00:31 437.305
MOZHAYETS 4 22 Sep 04:53:57 04:57:55 28° 266° (W) 05:01:54
ITUPSAT 1 22 Sep 05:02:46 05:06:35 24° 267° (W) 05:10:27 437.325
AO-7 22 Sep 05:03:26 05:11:36 57° 103° (ESE) 05:19:42 .
ITAMSAT 1 22 Sep 05:08:52 05:14:00 56° 101° (E) 05:19:07 435.822/435.867
CUBESAT XI-V 22 Sep 05:13:24 05:18:06 70° 258° (WSW) 05:22:49 437.345
Gurwin Techsat 1B 22 Sep 05:16:43 05:20:37 21° 303° (WNW) 05:24:31 435.225
KKS-1 22 Sep 05:28:47 05:33:11 71° 73° (ENE) 05:37:36 437.445
BEESAT 3 22 Sep 05:38:10 05:42:11 73° 233° (SW) 05:46:06 437.485
ISS 22 Sep 05:38:26 05:39:43 12° 224° (SW) 05:41:00 437.550
BEESAT 2 22 Sep 05:40:16 05:44:13 47° 44° (NE) 05:48:07 435.950
BEESAT 22 Sep 05:44:27 05:45:20 10° 275° (W) 05:46:13 436.000
STARS 22 Sep 05:59:19 06:03:36 62° 71° (ENE) 06:07:56 437.465
DOVE 4 22 Sep 06:12:48 06:16:18 25° 94° (E) 06:19:51 437.250
AO-85 22 Sep 06:21:38 06:25:58 76° 234° (SW) 06:30:39 145.980
LilacSat-2 22 Sep 06:32:18 06:33:44 12° 88° (E) 06:35:10 437.200
O/OREOS (USA 219) 22 Sep 06:35:54 06:36:44 10° 326° (NW) 06:37:35 437.305
CUTE-I 22 Sep 06:42:51 06:46:05 16° 88° (E) 06:49:18 437.470
ITAMSAT 1 22 Sep 06:48:56 06:53:10 26° 300° (WNW) 06:57:24 435.822/435.867
AO-7 22 Sep 06:56:32 07:04:12 43° 304° (NW) 07:11:50 .
RS-15 22 Sep 06:56:57 07:09:04 68° 120° (ESE) 07:21:10 29.354- 29.394
KAITUO 1B 22 Sep 06:57:53 07:00:12 15° 90° (E) 07:02:29 145.475/437.950
KKS-1 22 Sep 07:07:43 07:10:15 15° 271° (W) 07:12:46 437.445
BEESAT 2 22 Sep 07:18:24 07:21:45 25° 243° (WSW) 07:25:03 435.950
XW-2D 22 Sep 07:21:26 07:25:01 37° 97° (E) 07:28:33 145.860 - 145.880
STRAND 1 22 Sep 07:29:48 07:34:41 48° 68° (ENE) 07:39:36 437.568
XW-2B 22 Sep 07:33:37 07:37:21 48° 99° (E) 07:41:02 145.730 - 145.750
XW-2F 22 Sep 07:35:19 07:39:02 48° 99° (E) 07:42:42 145.980 - 146.000
STARS 22 Sep 07:37:35 07:40:22 16° 270° (W) 07:43:09 437.465
CUTE 1.7 + AOD 2 22 Sep 07:44:38 07:47:15 16° 89° (E) 07:49:50 437.475
DOVE 4 22 Sep 07:50:16 07:54:07 37° 292° (WNW) 07:58:04 437.250
CUBEBUG 2 22 Sep 07:52:50 07:55:01 13° 86° (E) 07:57:14 437.445
XW-2C 22 Sep 07:54:48 07:58:39 86° 104° (ESE) 08:02:28 145.795 - 145.815
AO-85 22 Sep 08:04:06 08:05:45 12° 250° (WSW) 08:07:27 145.980
LilacSat-2 22 Sep 08:04:38 08:08:29 70° 286° (WNW) 08:12:18 437.200
NUDT-PHONESAT 22 Sep 08:05:30 08:09:16 83° 103° (ESE) 08:12:59 437.300
UWE-3 22 Sep 08:05:46 08:06:06 10° 84° (E) 08:06:26 435.000/436.395/437.385
FO-29 22 Sep 08:18:34 08:22:35 21° 58° (ENE) 08:26:26 435.910
CUTE-I 22 Sep 08:21:28 08:26:49 85° 287° (WNW) 08:32:10 437.470
HO-68 22 Sep 08:28:14 08:35:07 46° 98° (E) 08:41:58 435.675
KAITUO 1B 22 Sep 08:30:49 08:34:29 49° 289° (WNW) 08:38:05 145.475/437.950
AO-7 22 Sep 08:50:43 08:54:54 15° 329° (NNW) 08:59:04 .
XW-2A 22 Sep 08:51:34 08:54:38 29° 96° (E) 08:57:41 145.665 - 145.685
AO-73 22 Sep 08:54:15 08:57:03 16° 88° (E) 08:59:49 145.935
SEEDS 22 Sep 08:55:09 08:59:15 49° 99° (E) 09:03:17 437.485
ZACube-1 22 Sep 08:55:35 08:58:44 18° 89° (E) 09:01:53 437.345
XW-2D 22 Sep 08:56:00 08:59:00 22° 296° (WNW) 09:01:58 145.860 - 145.880
Oscar 11 22 Sep 08:57:03 08:58:11 11° 86° (E) 08:59:18 .
XW-2B 22 Sep 09:08:35 09:11:12 18° 298° (WNW) 09:13:48 145.730 - 145.750
STRAND 1 22 Sep 09:09:49 09:14:07 27° 267° (W) 09:18:25 437.568
RS-15 22 Sep 09:10:06 09:22:13 56° 327° (NNW) 09:34:11 29.354- 29.394
XW-2F 22 Sep 09:10:14 09:12:49 18° 298° (WNW) 09:15:23 145.980 - 146.000
CUTE 1.7 + AOD 2 22 Sep 09:19:17 09:23:30 61° 287° (WNW) 09:27:39 437.475
AAUSAT CUBESAT 2 22 Sep 09:23:57 09:27:56 46° 98° (E) 09:31:53 437.432
UNISAT 6 22 Sep 09:23:57 09:27:18 22° 61° (ENE) 09:30:43 437.425
PRISM 22 Sep 09:24:00 09:25:48 13° 57° (ENE) 09:27:37 437.425
CUBEBUG 2 22 Sep 09:27:34 09:32:15 88° 284° (WNW) 09:37:01 437.445
XW-2C 22 Sep 09:30:57 09:32:13 11° 302° (WNW) 09:33:29 145.795 - 145.815
UWE-3 22 Sep 09:38:39 09:43:19 75° 102° (ESE) 09:48:00 435.000/436.395/437.385
NUDT-PHONESAT 22 Sep 09:41:19 09:42:33 11° 302° (WNW) 09:43:45 437.300
TIGRISAT 22 Sep 09:47:33 09:51:25 32° 66° (ENE) 09:55:23 435.000
FO-29 22 Sep 10:01:38 10:07:18 70° 257° (WSW) 10:12:34 435.910
CUTE-I 22 Sep 10:02:52 10:06:08 17° 306° (NW) 10:09:23 437.470
HO-68 22 Sep 10:16:07 10:22:52 45° 299° (WNW) 10:29:36 435.675
XW-2A 22 Sep 10:24:32 10:27:14 22° 294° (WNW) 10:29:55 145.665 - 145.685
AO-73 22 Sep 10:29:11 10:33:46 71° 287° (WNW) 10:38:19 145.935
Oscar 11 22 Sep 10:30:37 10:35:01 88° 113° (ESE) 10:39:20 .
ZACube-1 22 Sep 10:30:52 10:35:25 62° 288° (WNW) 10:39:56 437.345
SEEDS 22 Sep 10:31:31 10:34:37 20° 298° (WNW) 10:37:42 437.485
EO-88 22 Sep 10:36:07 10:38:09 14° 90° (E) 10:40:10 145.990 - 145.960
AIST 2D 22 Sep 10:43:22 10:45:20 14° 62° (ENE) 10:47:18 435.315
QB50P2 22 Sep 10:55:20 10:57:08 12° 56° (NE) 10:58:55 145.880/145.840
PRISM 22 Sep 10:56:22 11:00:28 86° 255° (WSW) 11:04:35 437.425
UNISAT 6 22 Sep 10:59:29 11:03:42 50° 261° (W) 11:08:03 437.425
AAUSAT CUBESAT 2 22 Sep 11:00:01 11:03:07 21° 297° (WNW) 11:06:11 437.432
Max Valier Satellite 22 Sep 11:03:36 11:07:07 37° 97° (E) 11:10:37 145.860
CUBEBUG 2 22 Sep 11:05:42 11:08:13 15° 303° (WNW) 11:10:44 437.445
DELFI C3 22 Sep 11:10:13 11:14:06 58° 101° (E) 11:17:57 145.870
M-CUBED/EXP-1 PRIME 22 Sep 11:14:07 11:15:24 11° 51° (NE) 11:16:39 437.505
UWE-3 22 Sep 11:16:13 11:19:15 17° 301° (WNW) 11:22:17 435.000/436.395/437.385
TIGRISAT 22 Sep 11:24:13 11:28:06 31° 265° (W) 11:32:06 435.000
RS-15 22 Sep 11:26:35 11:37:55 39° 360° (N) 11:48:56 29.354- 29.394
NANOSAT C BR1 22 Sep 11:31:04 11:34:15 21° 62° (ENE) 11:37:27 145.865
O/OREOS (USA 219) 22 Sep 11:39:18 11:42:33 18° 44° (NE) 11:45:47 437.305
LO-87 22 Sep 11:39:36 11:40:23 11° 88° (E) 11:41:11 145.935 - 145.965
FO-29 22 Sep 11:52:43 11:53:22 10° 275° (W) 11:53:59 435.910
DUCHIFAT 1 22 Sep 11:59:49 12:03:36 34° 67° (ENE) 12:07:26 145.980
HO-68 22 Sep 12:05:51 12:08:53 13° 322° (NW) 12:11:55 435.675
AO-73 22 Sep 12:07:36 12:09:10 12° 306° (NW) 12:10:44 145.935
Oscar 11 22 Sep 12:08:21 12:10:29 14° 303° (WNW) 12:12:37 .
EO-88 22 Sep 12:08:32 12:12:08 52° 288° (WNW) 12:15:41 145.990 - 145.960
ZACube-1 22 Sep 12:10:03 12:10:47 10° 307° (NW) 12:11:31 437.345
POLYITAN 1 22 Sep 12:10:22 12:14:28 53° 71° (ENE) 12:18:37 437.675
AIST 2D 22 Sep 12:14:38 12:18:07 54° 260° (W) 12:21:39 435.315
EO-79 22 Sep 12:15:10 12:19:18 60° 72° (ENE) 12:23:28 145.935-145.965
Oscar 19 22 Sep 12:15:17 12:17:39 13° 51° (NE) 12:20:00 437.125/150
ESTCUBE 1 22 Sep 12:21:48 12:25:28 24° 93° (E) 12:29:07 437.505/2401.250
YUBILEINY 22 Sep 12:25:34 12:32:55 32° 82° (E) 12:40:18 435.215
QB50P2 22 Sep 12:28:02 12:32:14 87° 75° (ENE) 12:36:31 145.880/145.840
AO-7 22 Sep 12:30:27 12:33:01 12° 24° (NNE) 12:35:36 .
Max Valier Satellite 22 Sep 12:37:52 12:40:45 21° 296° (WNW) 12:43:38 145.860
BUGSAT 1 22 Sep 12:42:48 12:46:12 27° 65° (ENE) 12:49:41 437.445
M-CUBED/EXP-1 PRIME 22 Sep 12:44:59 12:49:15 74° 67° (ENE) 12:53:12 437.505
DELFI C3 22 Sep 12:46:01 12:48:27 16° 299° (WNW) 12:50:51 145.870
VELOX 1 22 Sep 13:00:14 13:01:53 12° 87° (E) 13:03:31 145.980
NANOSAT C BR1 22 Sep 13:05:37 13:09:40 47° 261° (W) 13:13:46 145.865
LO-87 22 Sep 13:10:40 13:14:15 69° 286° (WNW) 13:17:50 145.935 - 145.965
SPROUT 22 Sep 13:11:55 13:15:11 21° 92° (E) 13:18:25 437.525
O/OREOS (USA 219) 22 Sep 13:17:56 13:22:34 81° 244° (WSW) 13:27:10 437.305
Gurwin Techsat 1B 22 Sep 13:22:32 13:27:06 30° 61° (ENE) 13:31:39 435.225
DUCHIFAT 1 22 Sep 13:35:44 13:39:19 27° 265° (W) 13:42:56 145.980
